2024/02/09 00:00:00, 0.0, 0.1
2024/02/09 00:10:00, 0.0,-0.0
2024/02/09 00:20:00, 0.0, 0.1
2024/02/09 00:30:00, 0.0, 0.2
2024/02/09 00:40:00, 0.0, 0.1
2024/02/09 00:50:00, 0.0,-0.1
2024/02/09 01:00:00, 0.0,-0.2
2024/02/09 01:10:00, 0.0,-0.1
2024/02/09 01:20:00, 0.0,-0.3
2024/02/09 01:30:00, 0.0,-0.3
2024/02/09 01:40:00, 0.0,-0.6
2024/02/09 01:50:00, 0.0,-0.9
2024/02/09 02:00:00, 0.0,-1.2
2024/02/09 02:10:00, 0.0,-1.0
2024/02/09 02:20:00, 0.0,-0.6
2024/02/09 02:30:00, 0.0,-0.6
2024/02/09 02:40:00, 0.0,-0.5
2024/02/09 02:50:00, 0.0,-0.3
2024/02/09 03:00:00, 0.0,-0.2
2024/02/09 03:10:00, 0.0,-0.3
2024/02/09 03:20:00, 0.0,-0.5
2024/02/09 03:30:00, 0.0, 0.2
2024/02/09 03:40:00, 0.0,-0.2
2024/02/09 03:50:00, 0.0,-0.0
2024/02/09 04:00:00, 0.0,-0.1
2024/02/09 04:10:00, 0.0,-0.0
2024/02/09 04:20:00, 0.0,-0.1
2024/02/09 04:30:00, 0.0, 0.2
2024/02/09 04:40:00, 0.0,-0.2
2024/02/09 04:50:00, 0.0,-0.1
2024/02/09 05:00:00, 0.0,-0.3
2024/02/09 05:10:00, 0.0,-0.3
2024/02/09 05:20:00, 0.0,-0.3
2024/02/09 05:30:00, 0.0,-0.3
2024/02/09 05:40:00, 0.0,-0.9
2024/02/09 05:50:00, 0.0,-1.6
2024/02/09 06:00:00, 0.0,-2.0
2024/02/09 06:10:00,23.0,-2.1
2024/02/09 06:20:00,23.3,-2.2
2024/02/09 06:30:00,23.4,-1.7
2024/02/09 06:40:00,23.4,-2.3
2024/02/09 06:50:00,23.3,-2.0
2024/02/09 07:00:00,23.0,-1.8
2024/02/09 07:10:00,23.1,-2.3
2024/02/09 07:20:00,23.1,-1.7
2024/02/09 07:30:00,22.7,-1.6
2024/02/09 07:40:00,22.6,-1.3
2024/02/09 07:50:00,22.4,-0.5
2024/02/09 08:00:00,22.3,-0.3
2024/02/09 08:10:00,22.2, 0.1
2024/02/09 08:20:00,---, 0.4
2024/02/09 08:30:00, 0.0, 0.9
2024/02/09 08:40:00, 0.0, 1.6
2024/02/09 08:50:00, 0.0, 2.5
2024/02/09 09:00:00, 0.0, 2.9
2024/02/09 09:10:00, 0.0, 3.9
2024/02/09 09:20:00, 0.0, 3.7
2024/02/09 09:30:00, 0.0, 4.6
2024/02/09 09:40:00, 0.0, 5.3
2024/02/09 09:50:00, 0.0, 5.5
2024/02/09 10:00:00, 0.0, 4.0
2024/02/09 10:10:00, 0.0, 3.3
2024/02/09 10:20:00, 0.0, 3.7
2024/02/09 10:30:00, 0.0, 3.5
2024/02/09 10:40:00, 0.0, 4.0
2024/02/09 10:50:00, 0.0, 4.6
2024/02/09 11:00:00, 0.0, 5.6
2024/02/09 11:10:00, 0.0, 6.2
2024/02/09 11:20:00, 0.0, 6.2
2024/02/09 11:30:00, 0.0, 6.3
2024/02/09 11:40:00, 0.0, 7.5
2024/02/09 11:50:00, 0.0, 7.3
2024/02/09 12:00:00,22.6, 6.5
2024/02/09 12:10:00,22.5, 7.4
2024/02/09 12:20:00,22.6, 7.2
2024/02/09 12:30:00,22.7, 7.9
2024/02/09 12:40:00,23.9,11.3
2024/02/09 12:50:00,22.8,10.4
2024/02/09 13:00:00,22.8,11.4
2024/02/09 13:10:00,22.4,10.0
2024/02/09 13:20:00,23.3,14.7
2024/02/09 13:30:00,23.8,13.9
2024/02/09 13:40:00,22.9,13.2
2024/02/09 13:50:00,21.9, 9.2
2024/02/09 14:00:00,22.2, 6.8
2024/02/09 14:10:00,22.7,10.0
2024/02/09 14:20:00,23.4,12.6
2024/02/09 14:30:00,22.7,10.5
2024/02/09 14:40:00,21.8, 8.8
2024/02/09 14:50:00,21.5, 8.4
2024/02/09 15:00:00,21.6, 8.0
2024/02/09 15:10:00,21.3, 6.2
2024/02/09 15:20:00,21.2, 7.2
2024/02/09 15:30:00,21.2, 7.0
2024/02/09 15:40:00,21.0, 7.1
2024/02/09 15:50:00,20.8, 8.0
2024/02/09 16:00:00,20.6, 6.9
2024/02/09 16:10:00,20.7, 6.8
2024/02/09 16:20:00, 0.0, 8.7
2024/02/09 16:30:00, 0.0, 6.9
2024/02/09 16:40:00, 0.0, 5.8
2024/02/09 16:50:00, 0.0, 5.1
2024/02/09 17:00:00, 0.0, 4.3
2024/02/09 17:10:00, 0.0, 3.7
2024/02/09 17:20:00, 0.0, 2.9
2024/02/09 17:30:00, 0.0, 2.2
2024/02/09 17:40:00, 0.0, 0.4
2024/02/09 17:50:00, 0.0,-0.3
2024/02/09 18:00:00, 0.0,-1.0
2024/02/09 18:10:00, 0.0,-1.5
2024/02/09 18:20:00, 0.0,-2.0
2024/02/09 18:30:00, 0.0,-2.3
2024/02/09 18:40:00, 0.0,-2.5
2024/02/09 18:50:00, 0.0,-2.8
2024/02/09 19:00:00, 0.0,-3.1
2024/02/09 19:10:00, 0.0,-3.1
2024/02/09 19:20:00, 0.0,-2.9
2024/02/09 19:30:00, 0.0,-3.3
2024/02/09 19:40:00, 0.0,-3.6
2024/02/09 19:50:00, 0.0,-1.1
2024/02/09 20:00:00, 0.0,-1.3
2024/02/09 20:10:00, 0.0,-1.4
2024/02/09 20:20:00, 0.0,-1.8
2024/02/09 20:30:00, 0.0,-3.1
2024/02/09 20:40:00, 0.0,-3.2
2024/02/09 20:50:00,---,-3.2
2024/02/09 21:00:00, 0.0,-3.5
2024/02/09 21:10:00, 0.0,-3.6
2024/02/09 21:20:00, 0.0,-3.2
2024/02/09 21:30:00, 0.0,-3.7
2024/02/09 21:40:00, 0.0,-3.8
2024/02/09 21:50:00, 0.0,-3.9
2024/02/09 22:00:00, 0.0,-3.5
2024/02/09 22:10:00, 0.0,-3.7
2024/02/09 22:20:00, 0.0,-3.6
2024/02/09 22:30:00, 0.0,-3.7
2024/02/09 22:40:00, 0.0,-3.7
2024/02/09 22:50:00, 0.0,-3.9
2024/02/09 23:00:00, 0.0,-3.9
2024/02/09 23:10:00, 0.0,-3.7
2024/02/09 23:20:00, 0.0,-4.0
2024/02/09 23:30:00, 0.0,-4.2
2024/02/09 23:40:00,---,-4.1
2024/02/09 23:50:00, 0.0,-3.8
